[ hide orbit diagram ]
For accurate long-term ephemerides, please instead use our Horizons system.This orbit viewer was implemented using two-body methods, and hence should not be used for determining accurate long-term trajectories (over several years or decades) or planetary encounter circumstances.
Orbital Elements at Epoch 2459000.5 (2020-May-31.0) TDB
Reference: JPL 21 (heliocentric ecliptic J2000)
Element | Value | Uncertainty (1-sigma) | Units |
e | .01846172958414766 | 6.0033e-08 | |
a | 2.740632972316887 | 1.86e-08 | au |
q | 2.690036147492574 | 1.6133e-07 | au |
i | 4.765040472129619 | 5.6092e-06 | deg |
node | 304.6309994844858 | 5.5485e-05 | deg |
peri | 41.73152838769349 | 0.00013819 | deg |
M | 157.968115665577 | 0.0001272 | deg |
tp | 2458273.320409252105 (2018-Jun-03.82040925) | 0.00058477 | TDB |
period | 1657.199312445099 4.54 | 1.6871e-05 4.619e-08 | d yr |
n | .2172339786147035 | 2.2115e-09 | deg/d |
Q | 2.7912297971412 | 1.8943e-08 | au |
|
| | Orbit Determination Parameters
Additional Information
|
[ show covariance matrix ]
Physical Parameter Table
Parameter |
Symbol |
Value |
Units |
Sigma |
Reference |
Notes |
absolute magnitude |
H |
15.6 |
|
n/a |
MPO493532 |
|
|
95155 (2002 AH175) Discovered 2002-Jan-14 by LINEAR at Socorro |
Reference: 20041028/Numbers.arc | Last Updated: 2004-10-29 |
|
[ show close-approach data ]
|